2023-003D (55136 NORAD) Tracking and Keplerian Element Data

This shows tracking and keplerian element data for the satellite.

Feedback or suggestion? Click here.




ElementValue
Catalog55136
Name2023-003D
Epoch Orbit1155
Epoch Day85.18259098
Epoch Year2023
RAAN172.7698
Inclination97.2618
Eccentricity0.0012178
Argument of Perigee36.2368
Mean Anonmoly48.1703
Mean Motion15.23982309
Decay Rate0.0002701
L11 55136U 23003D 23085.18259098 .00027010 00000+0 11133-2 0 9998
L22 55136 97.2618 172.7698 0012178 36.2368 48.1703 15.23982309 11559



Live tracking and technical data element details for 2023-003D (NORAD 55136). 2023-003D can be tracked NOW for your location showing map with azimuth and elevation plus other details from your city location.







IsCatalogInMostPopularTable: catalog: 55136, numindb: 8
Update: records affected: 1



GetName: 55136 2023-003D

Hit Count: updated at: Mon, 27 Mar 2023 06:29:18 GMT